Tiffin Cross Country Carnival 2010 vs Tiffin Cross Country Carnival 2009

Aggregate Data Points
Difference This Meet That Meet
Overall Athletes -219 4013 4232
Overall Average -0.42 21:41.60 21:42.02
1st-10th Place -6.00 15:29.33 15:35.33
1st-25th Place -3.77 15:43.65 15:47.42
1st-50th Place -3.41 15:57.05 16:00.46
1st-100th Place -3.24 16:13.49 16:16.74
Common Athletes -- -- 1918
Ran Faster 896 1408 512
Ran Season Best 79 409 330
Average Time -35.00 20:55.74 21:30.75
Median Time -36.97 20:28.06 21:05.03
Middle 80% Times -37.38 20:40.21 21:17.59
Top 10% Times -30.70 16:43.53 17:14.23
Top 25% Times -35.13 17:31.08 18:06.21
Top 50% Times -37.98 18:31.31 19:09.29
Bottom 50% Times -32.02 23:20.18 23:52.20
Bottom 25% Times -29.79 25:06.45 25:36.24
Bottom 10% Times -20.33 27:13.41 27:33.74
Average Difference -35.01 -- --
Median Difference -33.96 -- --
Middle 80% Difference -37.34 -- --
Top 10% Difference -23.22 -- --
Top 50% Difference -34.21 -- --
Top 25% Difference -30.31 -- --
Top 50% Difference -34.21 -- --
Bottom 50% Difference -35.75 -- --
Bottom 25% Difference -37.71 -- --
Bottom 10% Difference -28.69 -- --

Performances of Common Athletes
Athlete Team Difference This Meet That Meet
Michael Brajdic Bay -26.49 14:54.89 15:21.38
Curtis Hanle Louisville -7.07 15:16.55 15:23.62
Brian Hannaford Wester. North -56.84 15:23.23 16:20.07
Mike Seas Coldwater -53.32 15:32.40 16:25.72
Chadd Kiggins Carroll -20.77 15:34.28 15:55.05
Colin Cotton Sum. Co. Day -16.32 15:35.75 15:52.07
Steve Weaver Napoleon -35.37 15:37.02 16:12.39
John Sweeney St. Ignatius -5.79 15:37.91 15:43.70
Colin Fisher Delta -37.75 15:39.40 16:17.15
Greg Turissini St. Johns Jesuit -12.18 15:41.91 15:54.09
Matt Pelletier Berkshire -52.19 15:43.59 16:35.78
Russell McCune Wadsworth -24.65 15:44.17 16:08.82
Mike Wallace Sylvania Northview -48.59 15:48.29 16:36.88
Samuel Prakel Versailles +3.01 15:53.24 15:50.23
Jeff Hannaford Wester. North -9.67 15:51.60 16:01.27
Nick Kaiser Temperance-Bedford +6.78 15:58.45 15:51.67
Abel Flores Defiance -37.67 15:52.76 16:30.43
Ryan Kraus Maumee -44.28 15:54.84 16:39.12
Tyler Kvach Avon -38.20 15:55.79 16:33.99
Josh Makin Elder -6.22 15:56.76 16:02.98
Mike Parsons Avon Lake -29.37 15:56.88 16:26.25
David Knack Medina -15.01 15:57.18 16:12.19
Andrew Nelson Louisville -38.49 15:57.25 16:35.74
Nick Pupino Copley -39.55 15:57.94 16:37.49
Mitchell Baum St. Ignatius -43.46 15:57.94 16:41.40
Kevin Paradise Medina -29.95 15:59.86 16:29.81
Luke Pohlman Russia -5.95 16:00.96 16:06.91
Justin Housley Avon Lake -34.83 16:04.72 16:39.55
Brent Gaither Medina -22.25 16:05.56 16:27.81
Nathan Geiss Brunswick -54.75 16:06.77 17:01.52
Aaron Schenk Tol. St. Francis -5.19 16:08.78 16:13.97
Jack Butler St. Xavier -29.64 16:10.33 16:39.97
Mike Melko Miamisburg -10.49 16:10.78 16:21.27
Miles Pittak Steele -13.32 16:11.07 16:24.39
Jared Fleming Van Wert -30.85 16:12.16 16:43.01
Scott LaVoy Tol. St. Francis -29.34 16:12.55 16:41.89
Connor Buchholz Toledo C.C. -13.50 16:14.04 16:27.54
Corey Zielinski Elder -1:05.75 16:14.67 17:20.42
Brad Palocko Medina -1:05.42 16:15.54 17:20.96
Bryant Byrd Perrysburg -56.31 16:17.03 17:13.34
Michael Rusnaczyk Independence -21.24 16:19.59 16:40.83
Mike Miller Strongsville -30.93 16:20.44 16:51.37
Jacob Vandootingh St. Johns Jesuit -41.15 16:22.77 17:03.92
Nate Orndorf Bellefontaine -1:27.10 16:22.94 17:50.04
Kevin Mckown Sylvania Northview -2.86 16:23.00 16:25.86
Kyle Brooks Sylvania Northview -1:14.72 16:23.26 17:37.98
Robby Flannigan St. Xavier -36.76 16:24.12 17:00.88
Kyle Polman Independence -5.11 16:25.03 16:30.14
Stephen Stamp Louisville -1:13.01 16:25.72 17:38.73
Drew Savage St. Johns Jesuit -50.29 16:26.25 17:16.54
Nathan Lauck Elder -35.09 16:26.39 17:01.48
Jacob Swords Akron SVSM -7.77 16:26.61 16:34.38
Ryan Shields St. Johns Jesuit -53.25 16:26.96 17:20.21
Kyle Masterson Marlington +21.09 16:48.52 16:27.43
Nick Koczwara Louisville -55.77 16:27.56 17:23.33
Aaron Matheus Kings -1:40.93 16:29.17 18:10.10
Tommy Menyes Medina -15.21 16:29.27 16:44.48
Kyle Muenker Mentor -58.30 16:29.28 17:27.58
Sam Bickley Avon -40.43 16:29.42 17:09.85
Eric Stoddard Magnificat -4.96 16:30.39 16:35.35
Samuel Allen Bay -1:07.72 16:30.54 17:38.26
Nick Banks Bay -13.57 16:31.36 16:44.93
Ryan Weldon Wester. North -22.93 16:32.16 16:55.09
Evan Boucher Bellmont High School +3.77 16:36.49 16:32.72
Kyle Lach Tol. St. Francis -1:04.62 16:33.26 17:37.88
Andrew Galang St. Ignatius -41.61 16:33.86 17:15.47
Matt Waaland Findlay +22.37 16:57.10 16:34.73
Tyler Wise Hopewell-Loudon -30.59 16:35.46 17:06.05
Kevin Budge Bowling Green -46.51 16:35.89 17:22.40
Ryan Gallagher Buckeye -46.18 16:36.15 17:22.33
Mark Miller St. Johns Jesuit -20.77 16:36.45 16:57.22
Aaron Moore Strongsville -27.21 16:36.54 17:03.75
Chris Del Raso Carroll -57.18 16:36.86 17:34.04
Nick Bartram St. Ignatius -11.20 16:37.10 16:48.30
Patrick Winebar Kings -36.55 16:37.13 17:13.68
Tom Tussey Moeller -1:02.76 16:37.86 17:40.62
Kyle Wagner St. Johns Jesuit -29.09 16:39.11 17:08.20
Ryan Martin Kings -1:15.35 16:39.46 17:54.81
Kevin Abair Delta -26.07 16:39.52 17:05.59
Matt Herron Bluffton -1:05.44 16:40.58 17:46.02
Steven Stoffel Glen Este -51.96 16:41.42 17:33.38
Jon McMaken Graham Local +31.13 17:12.60 16:41.47
Greg Blevins Mentor -52.84 16:41.80 17:34.64
Matt Disher Sylvania Northview -1:55.78 16:42.12 18:37.90
Brian Harris Mentor -16.83 16:42.32 16:59.15
J.t Ward Kenston -46.06 16:42.78 17:28.84
Sergei Brubaker Milton-Union -57.83 16:42.83 17:40.66
Ramon Nieves Bellaire St. John -53.31 16:42.87 17:36.18
Francis Slonkosky Minster +1.63 16:44.97 16:43.34
Eli Cheney Otsego -38.80 16:43.75 17:22.55
Trevor Norris Avon Lake +2.55 16:46.40 16:43.85
Adam Bess Oregon Clay +1.68 16:47.46 16:45.78
Kevin Ford Wester. North -1:42.52 16:46.53 18:29.05
Peter Ogonek Westlake -47.23 16:46.66 17:33.89
Charlie Michel Sum. Co. Day -2:29.97 16:47.34 19:17.31
Donnie Whyte Miamisburg -43.78 16:48.33 17:32.11
Zachary Siefker Midview -1:41.78 16:48.87 18:30.65
Alex Fotheringham Medina -13.75 16:49.26 17:03.01
John Cameron Tol. St. Francis -45.80 16:49.75 17:35.55
Brian Seymour Bowling Green -1:00.36 16:49.95 17:50.31
Nick Fuelling Bellmont High School -15.19 16:50.27 17:05.46
Matt Riffle Bellaire St. John -22.04 16:50.33 17:12.37
Robert Robinson Medina -1:08.72 16:50.72 17:59.44
Dan Pastoria CVCA -1:36.83 16:50.87 18:27.70
Adam Horace Temperance-Bedford -19.59 16:51.56 17:11.15
Nate Tipton Wadsworth -1:13.10 16:52.37 18:05.47
Ryan Reese Kenston -14.71 16:52.59 17:07.30
Matt Marron Avon Lake -42.82 16:53.71 17:36.53
Brandon Saling Caldwell +58.64 17:52.45 16:53.81
Thomas Gibbons Oregon Clay -12.24 16:54.25 17:06.49
Zach Muhlenkamp Coldwater -19.32 16:54.55 17:13.87
Luke Jeske No. Royalton -1:43.74 16:55.32 18:39.06
Ric Roe Swanton -1:20.13 16:55.37 18:15.50
Luke Hickey Whitmer -1:42.08 16:55.60 18:37.68
Troy Tidwell Temperance-Bedford -9.37 16:56.68 17:06.05
Justin Koehn Norwalk -1:36.62 16:57.42 18:34.04
Jake Nye Temperance-Bedford -28.12 16:57.59 17:25.71
Adam Church Kenston -2:38.69 16:58.43 19:37.12
William Schumacher Syl. Southview -2:10.19 16:58.50 19:08.69
Sam Howard Columbian -29.35 16:59.40 17:28.75
Garrett Dasco Louisville -33.05 16:59.45 17:32.50
Tim Schilling St. Ignatius -50.98 16:59.85 17:50.83
Jake Graham Columbus Grove -10.73 17:00.05 17:10.78
Luke Schafer Elder -2:28.37 17:01.01 19:29.38
Cory Schoendorf Temperance-Bedford -20.87 17:01.02 17:21.89
Jacob Shramko Lexington +0.41 17:01.76 17:01.35
Tanner Schoen Bellevue +0.72 17:02.08 17:01.36
Dillon Hartman Brunswick -1:15.93 17:01.39 18:17.32
Jonathan Albaugh New London -1:09.36 17:02.21 18:11.57
Tyler Menear Brunswick -1:44.09 17:02.35 18:46.44
Brett Neutzling Ontario +55.11 17:57.57 17:02.46
Kent Ford Wester. North -2:05.66 17:02.57 19:08.23
Josh Rumsey Anthony Wayne -23.17 17:03.76 17:26.93
Joel Edwards Maumee -56.79 17:04.05 18:00.84
Jeremy Berry Whitmer -52.24 17:04.22 17:56.46
Bobby Bismark Madison -45.40 17:04.23 17:49.63
Cole Fittro Columbian +3.55 17:07.88 17:04.33
Josh Seedorf Liberty Center -35.75 17:05.17 17:40.92
Andrew Hall Tol. St. Francis -16.90 17:05.52 17:22.42
Ben Majewski Napoleon -53.56 17:06.15 17:59.71
Zachary Alexander Old Fort -9.20 17:06.71 17:15.91
J.j Grizincic Buckeye -2:12.16 17:06.93 19:19.09
Oliver Barga Minster +38.46 17:45.65 17:07.19
Nathan Kemper Colonel Crawford +26.24 17:33.77 17:07.53
Jimmy Roche Findlay -1:07.80 17:07.79 18:15.59
Maxx Lackie Delta -1:10.75 17:07.85 18:18.60
Mike Hurley Akron SVSM -1:58.93 17:08.93 19:07.86
Spencer Schleigh Wadsworth -1:26.51 17:09.34 18:35.85
Jared Mcfadden Black River -25.39 17:09.61 17:35.00
Clay Vild Brunswick -46.20 17:09.73 17:55.93
Cully Gordon West Holmes -1:15.04 17:09.84 18:24.88
Dylan Garritano Akron SVSM -1:35.86 17:09.90 18:45.76
Joe Brodman Calvert -29.36 17:10.19 17:39.55
Ben Martinez Liberty Center -1:12.45 17:10.41 18:22.86
Jake Clark Elder -59.78 17:10.46 18:10.24
John Honkala Berkshire -4.07 17:10.87 17:14.94
Nick Twining Eastwood -54.33 17:11.61 18:05.94
Zach Dombi Medina -45.73 17:11.87 17:57.60
Ross Henry Kenston -59.35 17:13.00 18:12.35
Zach Cummings Louisville -40.52 17:13.14 17:53.66
Chris McKown Sylvania Northview -2:08.08 17:13.36 19:21.44
Troy Maurer Perrysburg -1:59.86 17:13.81 19:13.67
Nate Dornback Berkshire -51.98 17:13.82 18:05.80
Kyle Thomas Sher. Fairview -52.26 17:14.66 18:06.92
Sam Meier Oregon Clay +6.20 17:21.41 17:15.21
Ian McNair St. Johns Jesuit -2.27 17:15.40 17:17.67
Sam Lehman Tinora -3:39.09 17:15.53 20:54.62
Caleb Hennon Wapakoneta -21.07 17:15.86 17:36.93
Josh Runion Bellefontaine -56.63 17:16.76 18:13.39
Nicholas Foster Circleville -57.39 17:17.61 18:15.00
Nathan McDevitt Wadsworth +1:06.67 18:24.58 17:17.91
Mike Leonard Strongsville -14.01 17:18.47 17:32.48
Chris Schenk Tol. St. Francis -59.88 17:18.54 18:18.42
Nathan Schalk New Riegel -38.14 17:18.81 17:56.95
Bryan Reed Lebanon -3:42.05 17:19.84 21:01.89
Riley Breese Mil. Lake -1:34.40 17:20.27 18:54.67
Seth Currier Greenon +7.58 17:27.91 17:20.33
Brandon McNeil Greenon -1:28.34 17:20.39 18:48.73
Drew Cassidy New Riegel -35.49 17:20.41 17:55.90
Brennan Bookmyer Findlay -2:56.87 17:21.14 20:18.01
Jackson Kulas Copley -17.03 17:21.79 17:38.82
Ben Stuckey Wynford -49.64 17:22.01 18:11.65
Aaron Rhodes Ashland -1:03.87 17:22.04 18:25.91
Kevin Burgett Steele -28.60 17:22.07 17:50.67
Tony Kall Medina -1:35.82 17:22.08 18:57.90
Hannah Neczypor No. Royalton -31.30 17:22.73 17:54.03
Connor Musial Avon Lake -5.48 17:23.18 17:28.66
Michael Decker Perkins -1:20.09 17:23.33 18:43.42
Gus Kazek Black River -27.81 17:23.34 17:51.15
Zach Hoffman Moeller -19.04 17:24.29 17:43.33
Eric Kettinger Findlay -46.73 17:24.34 18:11.07
Kyle Rohrbacher Perkins -1:10.06 17:24.55 18:34.61
Ian Walsh Akron SVSM -12.97 17:25.27 17:38.24
Zac Brown Findlay -39.58 17:25.39 18:04.97
Chris Hillis Willard -17.70 17:25.94 17:43.64
Kyle Babcock Lakota -21.11 17:25.96 17:47.07
David Dunten Findlay -4:08.98 17:26.10 21:35.08
Jim Tussey Moeller -1:41.94 17:26.74 19:08.68
Jake Gorney Whitmer +11.22 17:38.18 17:26.96
Zack Southward Bowling Green +53.94 18:21.01 17:27.07
Josh Fourhman Lexington -1:00.04 17:28.30 18:28.34
Brett Hanson Ottawa Hills -19.02 17:28.80 17:47.82
Clay Hunter Napoleon -1:48.82 17:29.25 19:18.07
Nick Farrar St. Johns Jesuit -1:17.97 17:29.81 18:47.78
Alec Nash Delta -7.46 17:29.85 17:37.31
Dallas Bright Maplewood -30.24 17:29.88 18:00.12
Tyler Layne Kings +22.47 17:52.44 17:29.97
Jeremiah Ortiz Old Fort +15.56 17:45.68 17:30.12
Adam Smercina Oak Harbor -44.41 17:30.19 18:14.60
Trevor Cox Gorham Fayette +14.83 17:45.22 17:30.39
Mike Czerniakowski Tol. St. Francis -2:08.60 17:30.42 19:39.02
Garret Gleckler Con. Crestview -12.18 17:30.43 17:42.61
Daniel Arbogast New Riegel -33.36 17:30.44 18:03.80
Blake Pecoraro Avon -1:00.40 17:30.91 18:31.31
Ben Crane Temperance-Bedford -51.33 17:30.94 18:22.27
Bryan Midlick Medina +22.27 17:53.23 17:30.96
Joel Meyer Russia +4.28 17:35.43 17:31.15
Todd White Bellefontaine -34.40 17:31.74 18:06.14
Colin Mccloskey Sylvania Northview -2:26.51 17:32.25 19:58.76
Tim Fries Copley -28.83 17:32.50 18:01.33
Brett Quinter Ft. Loramie +0.55 17:33.28 17:32.73
Jon Norstrom Wadsworth +1.05 17:33.88 17:32.83
Jack Olding Minster -33.12 17:32.90 18:06.02
Dylan Shays New London +22.86 17:55.90 17:33.04
Jeremy Rohr Mapleton -1:00.80 17:33.14 18:33.94
Miguel Flores Gibsonburg -1:44.36 17:33.20 19:17.56
Matt Ernstes Moeller -4.57 17:33.24 17:37.81
Colin Eggleston Marlington -1:01.42 17:33.63 18:35.05
James Rohaley Berkshire -34.43 17:33.93 18:08.36
Pat Davis Tol. St. Francis -1:40.18 17:33.99 19:14.17
Cory Vetovitz No. Royalton -40.21 17:34.58 18:14.79
Dan Asbury Lexington -2:10.61 17:34.81 19:45.42
Chris Weaver Sylvania Northview -53.03 17:34.86 18:27.89
William Crosby St. Paul +45.67 18:20.53 17:34.86
Marshall Kobylski Bowling Green -1.13 17:35.40 17:36.53
Greg Davisson Columbian -1:54.62 17:35.44 19:30.06
Joe Kelley Elder -58.36 17:35.55 18:33.91
Phil Mcguire Strongsville -54.25 17:35.65 18:29.90
Jeremy Bischoff Monroeville -1:19.66 17:36.10 18:55.76
Micah Brant Con. Crestview -26.01 17:36.29 18:02.30
Daniel D'amico Buckeye -1:07.71 17:36.55 18:44.26
Jacob Lorton Coldwater -1:02.20 17:36.58 18:38.78
Brandon Mesnard Columbian -55.96 17:36.83 18:32.79
Andrew Krantz Syl. Southview -35.77 17:37.08 18:12.85
Evan Wenner Carey -21.06 17:37.29 17:58.35
Matt Ko St. Johns Jesuit -1:23.67 17:37.39 19:01.06
Seb Tressel Fairless -27.33 17:37.73 18:05.06
Derek Preston Kings -2:04.94 17:37.91 19:42.85
Jesse Rudolph Medina -29.67 17:38.49 18:08.16
Drew Squires Ashland -1:37.71 17:38.62 19:16.33
Nate Steingass Tol. St. Francis -1:13.36 17:38.79 18:52.15
Isaac Bouyack Clyde -51.02 17:38.82 18:29.84
Jon Schalois Van Wert -1:09.84 17:39.03 18:48.87
Ben Barhorst Ft. Loramie -24.15 17:39.07 18:03.22
Eric Dahlinghaus Minster -22.57 17:39.22 18:01.79
Patrick Gallagher Strongsville +50.52 18:30.40 17:39.88
Jacob Whisler Ashland -56.54 17:40.29 18:36.83
Shawn Seymour Bowling Green -1:30.81 17:40.34 19:11.15
Joey Curtis New London -1:18.92 17:40.91 18:59.83
Robert Mccarthy Toledo C.C. +19.32 18:00.25 17:40.93
Jon Steingass Miamisburg -1:16.10 17:40.96 18:57.06
Izaak Kromer Carey -1:08.40 17:41.02 18:49.42
Trevor Sherman Russia +12.27 17:53.39 17:41.12
Matt Wallace Marlington -1:01.13 17:41.13 18:42.26
Trevor Durnwald Sand. SMCC -1:33.63 17:41.33 19:14.96
Tyler Talbert Sher. Fairview -1:18.66 17:42.01 19:00.67
Conrad Doehne Midview -50.42 17:42.88 18:33.30
John Lewis Butler -1:14.70 17:43.00 18:57.70
Trey Crase Colonel Crawford -57.80 17:44.26 18:42.06
Adam Berry Hawken -21.65 17:44.43 18:06.08
Joe Seedorf Liberty Center -37.03 17:44.65 18:21.68
Jack Schomer No. Royalton -37.64 17:44.77 18:22.41
Ross Palenik Strongsville -38.71 17:44.84 18:23.55
Brad Pochatek No. Olmsted -1.90 17:45.95 17:47.85
Clay Parlette Genoa Area -28.44 17:46.16 18:14.60
Isaac Cabe Akron SVSM -5:11.31 17:46.31 22:57.62
Bradley Voyten Independence -51.58 17:46.42 18:38.00
Riley Kuess Coldwater -57.06 17:46.75 18:43.81
Matt Howard Milton-Union -27.93 17:46.90 18:14.83
Kale Bandy Ashland -10.68 17:47.37 17:58.05
Cole Newman Liberty-Benton -29.14 17:47.66 18:16.80
Aaron Jakes Syl. Southview -1:42.89 17:48.13 19:31.02
Mitch Farnsworth Madison -45.20 17:48.18 18:33.38
Tom Ziebro Black River -1:34.70 17:48.48 19:23.18
Derek Arthur Medina +1:24.72 19:13.55 17:48.83
Devaun Churcha Fremont Ross -1:14.60 17:48.98 19:03.58
Sam Krobath Tol. St. Francis +1.93 17:51.02 17:49.09
Ken Kutcel Medina -54.11 17:49.25 18:43.36
Zak Kolesar Brunswick -1:00.89 17:49.44 18:50.33
Matt Oswald Akron SVSM -30.64 17:49.73 18:20.37
Garret Coombs St. Johns Jesuit -2:10.08 17:49.98 20:00.06
Matt Wolfe Oregon Clay +2.84 17:53.14 17:50.30
Tony Stevens Louisville -40.51 17:50.42 18:30.93
Mark Cecil Lebanon -1:04.87 17:50.52 18:55.39
Michael Davisson Perrysburg -23.60 17:50.86 18:14.46
Greg Kasper Lexington +23.93 18:14.80 17:50.87
Jordan Knieper Buckeye Valley +1.19 17:52.38 17:51.19
Tommy Rudolph Ottawa Hills -1:29.92 17:51.36 19:21.28
Ben Remaklus Anthony Wayne +11.01 18:02.44 17:51.43
Xavier Seavers Sandusky +57.27 18:48.81 17:51.54
Steven Hornyak No. Royalton -2:40.88 17:51.91 20:32.79
Zech Hites Delta +16.82 18:08.83 17:52.01
Ben Wexler Temperance-Bedford -33.81 17:52.33 18:26.14
Phillip Jewett Findlay -19.00 17:52.46 18:11.46
Darren Bush Wynford +16.46 18:08.93 17:52.47
Ian Mullenhour Hawken -8.05 17:52.74 18:00.79
Dominic King Bettsville -1:13.72 17:53.76 19:07.48
Tyler Barlage Russia -14.24 17:54.17 18:08.41
Joseph Sherrieb Liberty-Benton -1:05.27 17:54.26 18:59.53
Sam Subler Versailles -54.44 17:54.53 18:48.97
Josh Buzzard Westlake -26.07 17:54.62 18:20.69
Kevin Stieger No. Olmsted +23.14 18:17.84 17:54.70
Blake Willaims Magnificat -1.47 17:54.75 17:56.22
Brandon Behymer Glen Este -1:20.08 17:54.92 19:15.00
John Simonetti Akron SVSM -39.80 17:55.05 18:34.85
Tyler Anderson Brunswick -33.73 17:55.23 18:28.96
Evan Kleinpaste Wester. North -28.41 17:55.23 18:23.64
Jordan Rosenberger Gibsonburg -37.31 17:55.42 18:32.73
Jacob Ortiz Old Fort -54.13 17:55.72 18:49.85
Dan Hollo No. Olmsted +2.34 17:58.72 17:56.38
Darrin Goodman Eastwood -1:50.98 17:56.65 19:47.63
Brandon Barlage Russia -2:15.87 17:56.78 20:12.65
Mitch Brown Mohawk -45.23 17:56.81 18:42.04
Matt Hawkins Avon -1:25.30 17:57.37 19:22.67
Spencer Howell Norwalk -1:08.76 17:58.49 19:07.25
Kyle Gladieux Oregon Clay -1:28.94 17:58.72 19:27.66
John Ziebro Black River -55.20 17:58.98 18:54.18
Danyal Eisenbrant Napoleon -48.22 17:59.00 18:47.22
Ron Lusby Cal. River Valley +33.97 18:33.25 17:59.28
Greg Ornella Findlay -47.45 17:59.63 18:47.08
Joshua Mcreynolds Greenon -53.83 17:59.64 18:53.47
Ian McKee Medina -3.61 17:59.75 18:03.36
Dylan Quaider Medina +13.56 18:13.40 17:59.84
Jeff Chudakoff Kenston -1.05 18:00.03 18:01.08
Brandon Benore Temperance-Bedford +5.89 18:05.98 18:00.09
Darren Nash Carroll +6.03 18:06.62 18:00.59
Trevor Justus Tinora +3:11.90 21:12.53 18:00.63
Zach Smothers New London -7.80 18:00.69 18:08.49
Garrett Arnold Shelby +13.46 18:14.16 18:00.70
Mike Norris Butler -1:11.58 18:00.78 19:12.36
Dylon Webb Wapakoneta -17.83 18:00.96 18:18.79
Payton Delaney Colonel Crawford -1:06.36 18:01.32 19:07.68
Jacob Wingett Circleville + 18:01.60 18:01.60
Stephen Shephard Mil. Edison -21.61 18:02.19 18:23.80
Justin Ray Strongsville +1:23.84 19:26.17 18:02.33
Kevin Kovachick Strongsville -1:35.81 18:02.51 19:38.32
Doug Verbic Kenston -48.48 18:02.52 18:51.00
Jacob Goodwin Minster -1:02.57 18:02.65 19:05.22
Sam Guinta Medina +34.43 18:37.84 18:03.41
Austin Luebke Ft. Loramie -10.72 18:03.59 18:14.31
Mike Dahmen Maplewood -16.46 18:03.59 18:20.05
Michael Gonzales Shelby -20.89 18:03.64 18:24.53
Colin Ball Russia -53.57 18:03.84 18:57.41
Lynn Leatherman Liberty Center -19.50 18:03.93 18:23.43
Mark Stankiewicz Erie High School -52.30 18:04.03 18:56.33
Tommy Nelson Medina +36.83 18:41.12 18:04.29
Ryan Dull Carroll -9.01 18:04.32 18:13.33
Jacob Amburgy New London -25.64 18:04.60 18:30.24
Adrien Hall Steele -1.59 18:04.82 18:06.41
Brad Shook Buckeye +4.55 18:09.41 18:04.86
Cory Klosterman Milton-Union -13.81 18:04.87 18:18.68
David Wright Syl. Southview -1:35.16 18:05.24 19:40.40
Alex Raz Medina -1:08.89 18:05.48 19:14.37
Hunter Begy Kenston -5.07 18:05.79 18:10.86
Paul Beeson Kings -30.79 18:06.39 18:37.18
Nathan Scanlan Mil. Lake -14.14 18:06.45 18:20.59
Jash Ayers Midview -15.14 18:06.47 18:21.61
Martin Juarez Hopewell-Loudon -59.95 18:06.49 19:06.44
Kyle Stacey Liberty Center -1:04.80 18:07.04 19:11.84
Eric Pothast Versailles +56.60 19:03.86 18:07.26
Seth Benfer Lakota -18.43 18:07.53 18:25.96
Joe Wisniewski Beavercreek -1:52.49 18:07.66 20:00.15
Eddie Stolarz Circleville +5.71 18:13.37 18:07.66
Tyler Westmeyer Anthony Wayne -55.19 18:07.83 19:03.02
Austin Schultz Calvert -50.03 18:07.94 18:57.97
Joel Genter Con. Crestview -53.91 18:08.24 19:02.15
Brady Newcomer Graham Local -1:46.33 18:08.38 19:54.71
Sean Poholski Akron SVSM -27.35 18:08.80 18:36.15
Mike Taylor Midview -39.85 18:08.88 18:48.73
Caleb Pumphrey Graham Local -50.25 18:09.23 18:59.48
Dustin Herrick Eastwood -1:05.85 18:09.64 19:15.49
Austin Miller Steele -1:58.92 18:09.78 20:08.70
Ryan Larger Butler -37.44 18:10.26 18:47.70
Coltyn Grant Mil. Edison +12.49 18:22.92 18:10.43
Garrett Wood Cal. River Valley +19.07 18:29.55 18:10.48
Brandon Stewart Buckeye Valley -1:09.04 18:10.52 19:19.56
Jake Nestor Strongsville +19.84 18:30.40 18:10.56
Josh Bozin No. Olmsted -38.64 18:11.05 18:49.69
Jacob Welly New Riegel -1:31.93 18:11.23 19:43.16
Noah Edwards Van Wert -3:24.92 18:11.73 21:36.65
Matt Stewart Buckeye Valley -1:55.48 18:11.90 20:07.38
Will Anderson CVCA -1:10.23 18:11.94 19:22.17
Matt Stonebrook West Holmes -1:04.01 18:12.17 19:16.18
Seth Shill Hawken +0.55 18:12.90 18:12.35
Tanner Rufenacht Pettisville -32.32 18:12.44 18:44.76
Dylan Mowat St. Johns Jesuit -31.75 18:12.55 18:44.30
Andrew Hornick Louisville +13.11 18:26.28 18:13.17
Alan Kocher Circleville -31.93 18:13.24 18:45.17
Kalup Lyons Margaretta +11.94 18:25.28 18:13.34
Clement Dupuy Syl. Southview -1:31.84 18:13.52 19:45.36
Jared Martin Erie High School +3:57.98 22:11.51 18:13.53
Alex Shafer Columbus Grove -3.05 18:13.94 18:16.99
Robbie Rowland Lebanon -11.85 18:14.21 18:26.06
Jon Strutz Circleville -51.11 18:14.58 19:05.69
Matt Schomisch Strongsville -19.35 18:14.93 18:34.28
Addam Kitchen Vermilion -5.25 18:14.96 18:20.21
Wes Nash Carroll +3.33 18:18.66 18:15.33
Chris Cochoff CVCA -1:40.49 18:15.71 19:56.20
Zach Walker Napoleon +11.81 18:27.58 18:15.77
Austin Burkhart Lexington -37.08 18:15.78 18:52.86
Christina Blair CVCA -22.42 18:15.93 18:38.35
Cody Bukszar Brunswick -2:06.13 18:16.38 20:22.51
Sam Reihs Medina -49.81 18:16.52 19:06.33
Nathan Alexander Old Fort +9.25 18:26.33 18:17.08
John Hoffman Mil. Edison -57.19 18:17.45 19:14.64
Michael Wenig Versailles -41.48 18:17.55 18:59.03
Tammy Berger Versailles -48.96 18:17.59 19:06.55
C.j Knox Kenston -28.88 18:17.60 18:46.48
Greg Deye Lebanon -2:29.19 18:17.64 20:46.83
Tad Masthay Lebanon +17.36 18:35.21 18:17.85
Matt Thomas Bellaire St. John -1:22.16 18:17.96 19:40.12
Dillon Thompson Temperance-Bedford -29.11 18:18.23 18:47.34
Michelle Thomas Glen Este +2.95 18:21.79 18:18.84
Ian Anderson Syl. Southview -30.58 18:19.33 18:49.91
Hannah Stefanoff Grandview Hts. -55.35 18:19.56 19:14.91
Brady Groom Rossford -24.44 18:19.83 18:44.27
Andy King Ottawa Hills +14.71 18:34.73 18:20.02
Brian Haidet Syl. Southview -1:30.24 18:20.11 19:50.35
Cameron Price Bethel -40.07 18:20.11 19:00.18
Paul DeJong Perrysburg -1:05.20 18:20.33 19:25.53
Billy Roe Columbian -1:27.97 18:20.48 19:48.45
Cory Pfanner Perkins +1:16.05 19:36.73 18:20.68
Michael Braun Bellmont High School -1:38.98 18:20.73 19:59.71
Matt Meyer Fre. St. Joseph C.C. -49.04 18:20.75 19:09.79
Leon Kinsley Avon Lake -37.86 18:20.76 18:58.62
Ryan Ruch Strongsville -1:18.41 18:20.76 19:39.17
Jeff Briggs Seneca East -1:05.09 18:20.83 19:25.92
David Bowen Akron SVSM -2:48.74 18:20.83 21:09.57
Ryan Till Avon Lake -16.62 18:20.97 18:37.59
Devin Luginbill Columbus Grove +40.40 19:01.44 18:21.04
Michael Bratton Eastwood -9.23 18:21.11 18:30.34
Kaitlyn Llewellyn Perrysburg -1:25.75 18:22.65 19:48.40
Drew VonHandorf Sum. Co. Day -40.41 18:22.73 19:03.14
Charlie Altizer No. Royalton -23.04 18:22.80 18:45.84
James Fell Bay -1:17.45 18:22.94 19:40.39
Brett Mcclain West Holmes +34.76 18:57.74 18:22.98
Jordan Bevan Madison -13.20 18:23.01 18:36.21
Anthony Rodriguez Sand. SMCC -1:54.74 18:23.34 20:18.08
Scott Meyer Wester. North -2:06.82 18:23.41 20:30.23
Jeremy Cottam Bay -1:14.95 18:24.18 19:39.13
Selena Pasadyn Brunswick -35.56 18:24.54 19:00.10
Alex Ricica Whitmer -24.74 18:24.80 18:49.54
Cory Foster Bellaire St. John -1:15.13 18:24.96 19:40.09
Andrew Osborn Sylvania Northview -1:30.45 18:25.00 19:55.45
David Ballard Buckeye Valley -1:12.55 18:25.35 19:37.90
Joel Griffith CVCA -1:33.75 18:25.55 19:59.30
Katie Betts Stow-Munroe Falls +51.25 19:16.98 18:25.73
Jacob Clark Open Door Christian -27.10 18:26.15 18:53.25
Jacob Betts Avon -1:18.89 18:26.19 19:45.08
Mason Galat Lexington -3.32 18:26.20 18:29.52
Joey Swatzell Wester. North -1:35.07 18:26.60 20:01.67
Matt Drew Kings -53.63 18:26.62 19:20.25
Anna Boyert Medina -45.04 18:27.05 19:12.09
Matthew Sullivan Perrysburg -42.54 18:27.46 19:10.00
Cain Leathers Swanton -1:21.55 18:27.47 19:49.02
Taylor Hendrix Medina -11.07 18:27.72 18:38.79
Braden Distel Findlay +9.88 18:37.73 18:27.85
Keith Cotsmire Colonel Crawford -2:14.68 18:28.15 20:42.83
Denny Check Copley -13.20 18:28.23 18:41.43
Bronson Lillo Willard -4.88 18:28.29 18:33.17
Karl Stemen Magnificat -10.45 18:28.37 18:38.82
Ethan Blashford Copley -32.71 18:28.74 19:01.45
Kaleb Perez Woodmore -15.56 18:28.88 18:44.44
Dan Luca Avon Lake -2:29.15 18:28.90 20:58.05
Michael Ogle Open Door Christian -31.23 18:28.94 19:00.17
Luke Brubaker Van Wert +0.75 18:29.77 18:29.02
Justin Schaffer Fremont Ross -1:08.77 18:29.30 19:38.07
Isaac Hughes St. Johns Jesuit -1:04.07 18:29.30 19:33.37
Brett Betit Ashland -24.16 18:29.86 18:54.02
Corey Cole Wester. North +33.60 19:03.48 18:29.88
Tyler Rogers Medina -2:03.71 18:29.92 20:33.63
Zach Shinaver Oregon Clay +1:01.94 19:31.99 18:30.05
Clay Densmore Madison -1:22.38 18:30.14 19:52.52
Jay Clinger Upper Sandusky -37.31 18:30.64 19:07.95
Dalton Goeltzenleucther Gorham Fayette -26.56 18:30.86 18:57.42
Jake Atkinson Liberty Center +0.29 18:31.41 18:31.12
Iain Laymon Berkshire -1:38.36 18:31.26 20:09.62
Scott Collins Wester. North +1.39 18:32.78 18:31.39
Zane Smith Norwalk -1:37.82 18:31.53 20:09.35
Thomas Rhodes Oak Harbor -16.89 18:31.64 18:48.53
Dom Pasqualini Perkins -3:33.31 18:31.78 22:05.09
Nathan Patterson Sum. Co. Day -1:16.32 18:31.85 19:48.17
Daniel Pritchard Magnificat -41.11 18:32.24 19:13.35
Jalen Caudill Carey -1:08.77 18:32.50 19:41.27
Jacob Merryfield Gibsonburg +25.57 18:58.48 18:32.91
Nicholas Murray Sand. SMCC -19.89 18:34.89 18:54.78
Jordan Canedy Buckeye -56.50 18:34.97 19:31.47
Danny Byers Graham Local -45.74 18:35.14 19:20.88
Jorden Nye St. Wendelin -1:27.02 18:35.31 20:02.33
Nathan Canterbury Brunswick -42.37 18:35.78 19:18.15
Corey Labarge Shelby -17.82 18:37.07 18:54.89
Billy Mainwaring Medina -1:29.59 18:37.37 20:06.96
Steve Stanley Mil. Lake -1:00.20 18:37.58 19:37.78
John Martin Wapakoneta -1:06.74 18:37.72 19:44.46
Ben Lloyd Circleville -1:51.29 18:37.91 20:29.20
Cameron Rusnak Open Door Christian -2:01.10 18:37.93 20:39.03
Dyquain Rogers Erie High School +18.83 18:57.03 18:38.20
Alex Distel Findlay -1:01.78 18:38.85 19:40.63
Dan Sparks Medina -17.00 18:39.51 18:56.51
Spencer Boggs Ontario +16.25 18:55.90 18:39.65
Katherine Stultz Magnificat -24.71 18:39.69 19:04.40
Gabe Valencia Magnificat -1:30.22 18:40.07 20:10.29
Andrew Turi Delta +43.74 19:23.94 18:40.20
Ryan Schalk New Riegel -15.20 18:40.35 18:55.55
Matt Rosebrock Napoleon -1:19.65 18:40.44 20:00.09
Joseph Torres Oregon Clay -56.22 18:40.65 19:36.87
Josh Williams Marlington -1:12.80 18:40.72 19:53.52
Michael Hasselbach Oak Harbor -35.72 18:40.87 19:16.59
Tyler Abrams Caldwell -35.63 18:41.02 19:16.65
Aaron Heaton Maumee +5.41 18:46.86 18:41.45
Jared Kobylski Bowling Green -55.16 18:41.80 19:36.96
Josh Sumerauer Brunswick -3:17.36 18:41.93 21:59.29
David Maynard Medina -43.73 18:42.24 19:25.97
Beau Samples Sher. Fairview -16.04 18:42.33 18:58.37
Reid Wolin Whitmer -2:32.76 18:42.38 21:15.14
Ryan Stefanich Bowling Green -5.66 18:42.86 18:48.52
Bob Auber Buckeye -2:30.59 18:42.90 21:13.49
Kevin Herman Ottawa Hills +1:00.39 19:43.57 18:43.18
Dakota Walker Steele -1:07.77 18:43.48 19:51.25
Salvadore Catero Fostoria -1:27.24 18:43.67 20:10.91
Logan Pester Marlington +5.09 18:48.90 18:43.81
Jeff Simon Russia -6.31 18:44.06 18:50.37
Joe Gerber Bellevue -1:18.22 18:44.20 20:02.42
Aaron Brown Westlake -2:14.98 18:44.34 20:59.32
Maria Arnone Akron SVSM -34.96 18:45.14 19:20.10
Alex Mccurdy Bowling Green -56.19 18:45.70 19:41.89
Brad McConnell Seneca East +13.71 18:59.45 18:45.74
Gary Kedmenec Liberty-Benton -28.18 18:46.45 19:14.63
Jonathon Simon Westlake -1:36.15 18:46.66 20:22.81
Jacob Hanson St. Johns Jesuit -8.38 18:46.80 18:55.18
Tony Beauch Tol. St. Francis +45.24 19:32.04 18:46.80
Eric Stephens Temperance-Bedford -2:05.30 18:46.91 20:52.21
Austin Eber Perrysburg -27.74 18:47.18 19:14.92
Harrison Keppler Westlake +37.07 19:24.27 18:47.20
Tim Donahue No. Olmsted -2:03.68 18:47.48 20:51.16
Eric Collins Avon -53.32 18:47.51 19:40.83
Eric Collins Strongsville -34.70 18:48.34 19:23.04
John Reichgott Bowling Green -2:31.10 18:48.98 21:20.08
Randy Kuzilla Independence +5.49 18:54.64 18:49.15
Damion Clauson Tinora +1:30.35 20:19.80 18:49.45
Nolan Park Berkshire -8.21 18:49.45 18:57.66
Anthony Carter Kirtland +37.60 19:27.31 18:49.71
Zack Woody Kings -2:27.36 18:49.76 21:17.12
Ryan Vieu Greenon -40.73 18:50.01 19:30.74
Logan Smith Temperance-Bedford -1:09.25 18:50.09 19:59.34
Jonathan Fowler Otsego -33.05 18:50.16 19:23.21
Max Prand Perrysburg -1:40.11 18:50.28 20:30.39
Tim Young West Holmes -15.36 18:50.47 19:05.83
Joseph Breen Findlay -1.83 18:50.88 18:52.71
Zachary Rofe Berea-Midpark -48.21 18:51.02 19:39.23
Alex House Fremont Ross -3:13.54 18:51.04 22:04.58
Alexandra Aughenbaugh Tol. N. Dame Acad. -19.39 18:51.12 19:10.51
Aaron Foss St. Wendelin -56.94 18:51.13 19:48.07
Henrey Cooper Kings -1:06.97 18:51.25 19:58.22
Sean Brewster St. Paul +37.89 19:29.32 18:51.43
Walter Bockert Hol. Springfield -1:32.94 18:51.51 20:24.45
Blake Juergens Avon Lake -14.51 18:51.54 19:06.05
Hayley Stegemiller Lebanon -38.41 18:51.74 19:30.15
Nick Clunk Buckeye Valley +31.00 19:23.13 18:52.13
Alex Hoerig Mohawk -36.33 18:52.84 19:29.17
Brittany Stockmaster Seneca East +35.26 19:28.50 18:53.24
Will Brundrett Perrysburg -34.74 18:53.44 19:28.18
Zach Smith Berea-Midpark -45.38 18:53.52 19:38.90
Karl Randall Kenston -1:38.57 18:53.54 20:32.11
Tyler Langenderfer Tol. St. Francis -1:06.27 18:54.04 20:00.31
Alyssa Moran Strongsville -41.37 18:54.45 19:35.82
Austin Cassidy Miamisburg -1:03.12 18:54.55 19:57.67
Paul Hudson Glen Este -20.87 18:54.96 19:15.83
Brendan Scully Erie High School -55.50 18:55.11 19:50.61
Jacob Kissell Gibsonburg -1:44.29 18:55.77 20:40.06
Jacob Ruffing Seneca East -1:29.96 18:55.87 20:25.83
Roman Kowalysko Hawken -24.01 18:56.25 19:20.26
Chris Liatti Medina -2:04.19 18:56.70 21:00.89
Scott Vehre Carey -57.56 18:56.94 19:54.50
Camden France Margaretta +44.62 19:41.59 18:56.97
Austin Schaffer Seneca East -1:37.95 18:57.96 20:35.91
Garret Rose Versailles -50.94 18:58.29 19:49.23
Daniel Blank Wynford -59.81 18:58.32 19:58.13
Andrew Dow St. Paul -54.17 18:58.54 19:52.71
Paul Kreh Carey -1:59.98 18:58.55 20:58.53
Angelo Eufracio Fostoria -10.12 18:58.72 19:08.84
Drew Barber St. Johns Jesuit -30.47 18:58.86 19:29.33
Alexis Uber Brunswick -59.08 18:59.02 19:58.10
Chris Levy Copley -57.72 18:59.04 19:56.76
Logan Babcock Lexington -2:44.95 18:59.25 21:44.20
Erin Cullen Shaker Hts. -1:23.21 18:59.27 20:22.48
Katie Borchers Russia +20.61 19:19.94 18:59.33
Brandon Champion Anthony Wayne -57.19 18:59.73 19:56.92
Johnny Shumay Eastwood -1:01.12 18:59.77 20:00.89
Aric Ross Greenon -12.55 19:00.27 19:12.82
Abby Masters Sylvania Northview -36.21 19:00.56 19:36.77
Michael Patton Carey -51.94 19:01.83 19:53.77
Chris Groh Fairless +4.30 19:06.36 19:02.06
Cody Davis Mapleton -20.03 19:02.21 19:22.24
Kyle Bell Ashland -52.02 19:02.52 19:54.54
Eli Slater Ashland -23.30 19:02.65 19:25.95
Connor McHugh Ottawa Hills -25.11 19:02.66 19:27.77
Tim Stoltzfus Gorham Fayette -1:49.57 19:02.86 20:52.43
Jaime Larsen Strongsville -55.28 19:03.33 19:58.61
Derek Gerken Napoleon -54.38 19:03.48 19:57.86
Chad Gentry Louisville -1.28 19:03.53 19:04.81
Joe Banks Bay +7:57.35 27:01.00 19:03.65
Hannah Turpin Lebanon -1:00.63 19:04.25 20:04.88
Troy Tyree Milton-Union -1:46.71 19:04.27 20:50.98
Travis Salvati Hawken -21.17 19:04.50 19:25.67
Chris Hines Woodmore -43.65 19:04.68 19:48.33
Aaron Bruner Pettisville -37.07 19:05.00 19:42.07
Haden Aldrich Sylvania Northview -1:51.18 19:05.17 20:56.35
Danny Kubick Strongsville -2.60 19:05.53 19:08.13
Matt Szteiter Whitmer +26.40 19:32.21 19:05.81
Andrew Slonkosky Versailles -1:37.51 19:06.05 20:43.56
Bennett Kelleogg Magnificat -1:06.50 19:06.52 20:13.02
Joel Roggeman No. Royalton -1:00.81 19:06.68 20:07.49
Lauren Goodwin Kings -1:13.80 19:06.78 20:20.58
Logan Mahl Willard -2:52.00 19:06.82 21:58.82
Hiroki Witt Brunswick -48.34 19:06.95 19:55.29
Robert Kniss Hopewell-Loudon +34.55 19:42.12 19:07.57
Jarett Bruner Ottawa Hills -1:15.86 19:07.87 20:23.73
Kyle Brooks Erie High School -1:22.49 19:07.97 20:30.46
Aaron Reed Bethel +16.09 19:24.07 19:07.98
Abbie Marquard Magnificat +9.33 19:17.32 19:07.99
Katy Link Avon Lake +3.58 19:12.13 19:08.55
Katie Kerr Magnificat -1:44.34 19:08.81 20:53.15
Tanner Daniels Ashland +7.82 19:16.73 19:08.91
Logan Kibler No. Olmsted -16.33 19:08.96 19:25.29
M.j Quaintance Wynford +30.89 19:40.03 19:09.14
Steven Pedro Anthony Wayne -13.91 19:09.32 19:23.23
Mattie Moncayo Lexington -43.48 19:09.76 19:53.24
Miyabe Nonaka Bellefontaine +54.67 20:04.65 19:09.98
Will Cameron Tol. St. Francis -24.47 19:10.36 19:34.83
Adam Johnson Mapleton +13.47 19:24.06 19:10.59
Jessie Iafelice Mentor -40.83 19:10.72 19:51.55
Logan Pfeifer Colonel Crawford -1:38.87 19:10.76 20:49.63
Gabe Murray Perkins -12.85 19:10.87 19:23.72
Jacob Stacks Akron SVSM -28.37 19:11.25 19:39.62
Kelsey Calhoun Temperance-Bedford -1:00.52 19:11.64 20:12.16
Zac Baker Lakota -9.94 19:11.90 19:21.84
Talon Flohr Sandusky +33.94 19:45.90 19:11.96
Michael Kendro Akron SVSM -32.99 19:12.09 19:45.08
Taylor Reece Kings -1:07.22 19:12.41 20:19.63
Jacob Pawelczyk Sylvania Northview -1:08.49 19:12.56 20:21.05
Chris Cole St. Peters -16.45 19:12.70 19:29.15
Ronnie Cole Maumee -33.08 19:12.87 19:45.95
Chris Schoenig No. Olmsted -21.85 19:12.92 19:34.77
Mike Lasky Mohawk -2:55.13 19:13.42 22:08.55
Maddy Mcdonough Magnificat -35.12 19:13.70 19:48.82
David Bender Mil. Edison +45.72 19:59.86 19:14.14
Jacob Whitman Sher. Fairview -29.77 19:14.48 19:44.25
Grant Schroeder Columbus Grove -20.92 19:14.91 19:35.83
Johnathon O'donnell Avon Lake +9.97 19:25.06 19:15.09
Jacob Berryman Fremont Ross -2:33.15 19:15.28 21:48.43
Brian Vogtsberger Anthony Wayne -2:55.70 19:15.36 22:11.06
Tori Hassen Anthony Wayne +1.76 19:17.87 19:16.11
Greyson Masserant Genoa Area -1:28.46 19:16.24 20:44.70
Adam Prechtl Midview -47.36 19:16.54 20:03.90
Jake Miller Bellevue -1:53.03 19:17.19 21:10.22
Jacob Schroeder Columbus Grove -6.99 19:17.63 19:24.62
Andrew Beier Bellevue -1:54.82 19:18.16 21:12.98
Rachel Slingluff Beaumont +0.14 19:18.55 19:18.41
Blake Arnold Copley -42.97 19:18.64 20:01.61
David Proulx Defiance -2:14.21 19:18.80 21:33.01
Alexandra Markovich Hawken -52.43 19:18.91 20:11.34
Brooke Tullis Maumee -1:21.20 19:18.96 20:40.16
Lacy Nagy Woodmore -1:40.12 19:19.43 20:59.55
Dylan Buckley Danbury -24.18 19:19.54 19:43.72
Andrew Hemenway Norwalk -22.49 19:19.73 19:42.22
Nick Rumschlag Hopewell-Loudon -26.70 19:19.85 19:46.55
Hanna Sterle Bay -19.92 19:20.20 19:40.12
Kenny Turscak Medina +30.42 19:50.73 19:20.31
Emily Trent Ash. Crestview -30.98 19:20.42 19:51.40
Andrew Massi Medina -4.37 19:21.06 19:25.43
Devin Eichelberger Ash. Crestview -0.20 19:21.11 19:21.31
Nick Schmiesing Columbus Grove -1:05.47 19:21.23 20:26.70
Luke Shays New London -44.00 19:21.28 20:05.28
Ian Olexio Wester. North -1:39.85 19:21.32 21:01.17
Joy Talbott CVCA +27.51 19:49.12 19:21.61
Cameron Holloway CVCA -1:58.08 19:21.67 21:19.75
Justin Marsh Cal. River Valley -33.98 19:21.86 19:55.84
Ben Freer Ashland -45.08 19:21.96 20:07.04
Jerry Kindig Findlay -1:22.99 19:22.82 20:45.81
Nikki Diehm Ashland -1:32.50 19:22.87 20:55.37
Carl Delavaris Grandview Hts. -2:09.75 19:23.34 21:33.09
Mark Anthony New London -35.52 19:23.34 19:58.86
Jacob Henry Eastwood -24.33 19:23.37 19:47.70
Evan Lewis Wester. North -56.33 19:23.48 20:19.81
Paige Miller Kings -49.05 19:23.63 20:12.68
Ellen Isaac Lexington -1:20.80 19:23.66 20:44.46
Chris Gordon Steele -48.63 19:23.72 20:12.35
Alex Bacisin Black River -1:47.55 19:23.94 21:11.49
Josh Breidenbach Hopewell-Loudon -1:36.58 19:24.07 21:00.65
Katie Webb Copley -25.65 19:24.26 19:49.91
Tanner Duvall Temperance-Bedford -9.93 19:24.41 19:34.34
Francesca Veluscek Tol. N. Dame Acad. -1:52.24 19:24.56 21:16.80
Kasey Keesy Willard -1:32.97 19:24.68 20:57.65
Austin Gariety Russia -44.29 19:24.79 20:09.08
MacKenzie McMillin Greenon -2:16.20 19:25.01 21:41.21
Andrea Mcardle Strongsville -2:05.01 19:25.10 21:30.11
Anna Mion Akron SVSM -1:14.29 19:25.12 20:39.41
Troy Meyer Columbus Grove -1:29.90 19:25.22 20:55.12
Josh Flick Bowling Green -1:06.28 19:25.35 20:31.63
Robert Wernert Stritch Cath. -1:05.75 19:25.81 20:31.56
Blake Wasung Toledo C.C. +1:01.27 20:28.02 19:26.75
Ted Trzaska Minster -35.76 19:26.80 20:02.56
Lauren Duncan Tol. N. Dame Acad. -36.80 19:26.81 20:03.61
Haley Reines No. Olmsted -41.71 19:27.02 20:08.73
Jarrod Brown Wellington - Columbus +5.79 19:32.95 19:27.16
Laura Hogan Magnificat -1:48.61 19:27.19 21:15.80
Kenny Steinbauer Clyde -37.06 19:27.33 20:04.39
Tyler Mastrangelo Copley -30.56 19:27.47 19:58.03
Alexander Kirksey Sandusky -3:04.70 19:27.59 22:32.29
Parker Goodwin Kings -54.75 19:27.66 20:22.41
Dane Zunich Open Door Christian +48.67 20:16.41 19:27.74
Holden Sondergeld Gibsonburg +37.51 20:05.30 19:27.79
Chelsea Knapp Liberty Center +11.80 19:39.80 19:28.00
Ben Ysasi Fre. St. Joseph C.C. -1:42.15 19:28.19 21:10.34
Kierstin Lathrop Cal. River Valley -44.22 19:28.40 20:12.62
Brad Nester Sher. Fairview -2:01.99 19:28.71 21:30.70
Aaron Eilerman Versailles -4.39 19:29.04 19:33.43
Loren Mcdaniel Brunswick -9.64 19:29.41 19:39.05
Jack Dailey Sum. Co. Day +11.23 19:40.67 19:29.44
Mitchell Koellner Copley -1:45.77 19:29.68 21:15.45
Sarah Mallow Tol. N. Dame Acad. -28.82 19:30.55 19:59.37
Kurt Stockmaster Willard -2:17.30 19:30.56 21:47.86
Justin Jackson Fostoria -4.66 19:30.79 19:35.45
Adam Rospert Mil. Edison +12.07 19:43.26 19:31.19
Jeffery Hoffman Otsego -3.48 19:31.25 19:34.73
Paul Wellnitz Wester. North -2:03.85 19:31.27 21:35.12
Logan Binder Lebanon -1:50.79 19:31.39 21:22.18
Molly Ream Shelby -29.45 19:31.53 20:00.98
Irene Frangos CVCA -35.36 19:31.84 20:07.20
William Johns Defiance +1:22.97 20:54.84 19:31.87
Greg Pelfrey Miamisburg -54.97 19:32.02 20:26.99
Mitch Wall Medina -20.49 19:32.06 19:52.55
Lauren Francis Russia -58.23 19:32.13 20:30.36
Cody Proffitt Bellefontaine +7.44 19:39.80 19:32.36
Mallory Myers CVCA -58.55 19:32.45 20:31.00
Sam Williamson Buckeye Valley -41.11 19:32.62 20:13.73
Nathan Epperson Russia -1:47.01 19:32.68 21:19.69
Bradley Breeden Oregon Clay -1:08.73 19:32.75 20:41.48
Matt Scheerer Coll Western -4:48.35 19:32.80 24:21.15
Eric Goots No. Olmsted +33.20 20:06.03 19:32.83
Marissa Rossetti Akron SVSM +1.67 19:34.81 19:33.14
Tom Getz Medina +53.40 20:26.59 19:33.19
Nick Mayes Marlington -2:07.29 19:33.47 21:40.76
Chris Emery Sylvania Northview -1:19.39 19:33.64 20:53.03
Sam Goetz Kings -1:11.25 19:33.89 20:45.14
Kylee Bernthisel Otsego -1:55.51 19:33.98 21:29.49
Bryant Dietrich Tinora +45.19 20:19.74 19:34.55
Daniel Thompson Louisville -1:28.88 19:34.56 21:03.44
Alex Elkins Tinora -1:12.61 19:34.73 20:47.34
Jayson Smith Strongsville +1.47 19:36.22 19:34.75
Jacob Schwinn New London -55.75 19:34.95 20:30.70
Matt Beck Findlay -29.41 19:35.08 20:04.49
Drew Lawrence Avon -1:00.17 19:35.14 20:35.31
Spencer Prichard Van Wert -31.96 19:35.51 20:07.47
Zach Merkle Con. Crestview -36.24 19:35.86 20:12.10
Brittney Darah Anthony Wayne -1:08.59 19:36.07 20:44.66
Tessa Weigand Akron SVSM -24.82 19:36.08 20:00.90
Elyse Bierut Magnificat -8.39 19:36.09 19:44.48
Kennedy Hossler Bettsville -25.40 19:36.21 20:01.61
Aaron Lucius Hopewell-Loudon -12.56 19:36.26 19:48.82
Zach Seaman Oak Harbor +3.61 19:40.24 19:36.63
Jill Kanney Coldwater -6.42 19:36.70 19:43.12
Jimmy Sanchez Clearview +1:39.76 21:16.76 19:37.00
Tanner Hostetler Pettisville +27.50 20:04.66 19:37.16
Connor Schabel Kenston -55.29 19:37.40 20:32.69
Ej Schroeder Perrysburg +1:24.84 21:02.65 19:37.81
Nathan Smith Strongsville +9.51 19:47.37 19:37.86
Nate Onnen Kings +34.71 20:12.70 19:37.99
Zach Hassinger Buckeye Valley -1:57.08 19:38.00 21:35.08
Chris Petek Steele -51.62 19:38.25 20:29.87
Marcus Zappa Steele -1:39.41 19:38.26 21:17.67
Macey Walker Magnificat -1:00.64 19:38.27 20:38.91
Jake Ramey Huron -28.27 19:38.40 20:06.67
Aric Diamond Bay -56.11 19:38.41 20:34.52
Sarah Flickinger Pandora-Gilboa +31.33 20:09.91 19:38.58
Levi Stump Liberty-Benton -45.29 19:38.84 20:24.13
Moe Dean Sylvania Northview -17.99 19:38.86 19:56.85
Luke Loudenslagel Bellevue -52.75 19:39.13 20:31.88
Dillon Bogner Gibsonburg -26.07 19:39.48 20:05.55
Lexi Lopez Syl. Southview +21.72 20:01.21 19:39.49
Joe Coppus Hopewell-Loudon -19.42 19:39.54 19:58.96
Michael Jarrell Bowling Green -27.99 19:39.88 20:07.87
Randy Radtke No. Royalton -5.06 19:40.03 19:45.09
Andrew Tanner Wester. North -1:11.82 19:40.03 20:51.85
James Shultz Erie High School +12.59 19:52.86 19:40.27
Andrew Lommerse Hopewell-Loudon -26.24 19:40.97 20:07.21
Joey Leech Anthony Wayne -53.27 19:41.10 20:34.37
Aaron Ambrosio Steele -1:19.76 19:41.35 21:01.11
Matt Coggeshall Miamisburg -3:00.60 19:41.42 22:42.02
Brad Murphy Versailles +1:15.88 20:57.37 19:41.49
Ian Frankenburg Findlay -2:44.56 19:41.50 22:26.06
Morgan O'connor Magnificat +12.22 19:53.75 19:41.53
Megan Freeman Maumee +24.13 20:06.29 19:42.16
Zack Hauck Ottawa Hills -12.51 19:43.10 19:55.61
Jesus Romero Rossford +1:22.80 21:05.92 19:43.12
Madison Connelly Magnificat -31.40 19:43.37 20:14.77
Dan Boberek No. Royalton -51.27 19:43.38 20:34.65
Andrew Kurtz St. Johns Jesuit -3:05.32 19:43.47 22:48.79
Aaron Zimmerman Temperance-Bedford -12.75 19:43.84 19:56.59
Eli Svercek Caldwell -1:19.50 19:44.10 21:03.60
Haley Lykins Shelby +2:16.89 22:01.11 19:44.22
Kia Frank Oak Harbor -1:15.96 19:44.41 21:00.37
Deanna Kreider Mentor -2.80 19:44.56 19:47.36
Jared Staley Bluffton -41.76 19:44.72 20:26.48
Blake Ridenour Shelby -1:23.85 19:44.99 21:08.84
Tyler Chaffee Seneca East -14.13 19:45.03 19:59.16
Shelby Ripley Con. Crestview -8.57 19:45.31 19:53.88
Dylan Evans Berkshire -55.15 19:45.32 20:40.47
Veronica Bruns Coldwater +41.77 20:27.20 19:45.43
Erica Monnin Napoleon -31.04 19:45.61 20:16.65
A.j. Mavis Sher. Fairview +45.63 20:31.73 19:46.10
Kyle Clifford Medina -1:29.55 19:46.20 21:15.75
Joe Opperman Shelby -33.54 19:46.39 20:19.93
Kelly Haubert Liberty Center -1:05.45 19:46.42 20:51.87
Trey Adkison Glen Este -46.56 19:46.53 20:33.09
Jenna Parlette Miamisburg -22.79 19:47.35 20:10.14
Kory Carter Avon -1:30.30 19:47.36 21:17.66
Janelle Noe Sylvania Northview -56.97 19:47.57 20:44.54
Logan Maag Liberty-Benton +12.71 20:00.46 19:47.75
Chris Saranita Avon Lake -2:23.42 19:47.80 22:11.22
Seth Duncan No. Olmsted -54.27 19:48.12 20:42.39
Kelan Grohnke Tol. St. Francis -39.90 19:48.30 20:28.20
Jeremy Mcfarland Madison -2:28.73 19:48.45 22:17.18
Megan Csehi Oregon Clay -1:39.43 19:48.47 21:27.90
Maria Dahlinghaus Minster +17.49 20:06.03 19:48.54
Nick Vargo Lexington -1:52.18 19:48.59 21:40.77
Chris Richardson Berea-Midpark -30.62 19:48.72 20:19.34
Jacob Fultz Danbury -1:30.49 19:48.94 21:19.43
Amanda Zittleman Temperance-Bedford -1:08.23 19:48.95 20:57.18
Ian Pribe Sylvania Northview -2:01.22 19:49.17 21:50.39
Jared Reiber Avon Lake -1:53.30 19:49.60 21:42.90
Rowland Taylor Bay +8:27.93 28:17.67 19:49.74
James Massara Upper Sandusky -3.24 19:49.90 19:53.14
Timmy Schloz Whitmer -16.60 19:50.02 20:06.62
Nick Sheehan Buckeye Valley -1:08.28 19:50.14 20:58.42
James Waite Medina -22.00 19:50.21 20:12.21
Alec Falkenberg Tol. St. Francis -1:28.35 19:50.28 21:18.63
Alex Timmerman Coldwater -1:22.40 19:50.32 21:12.72
Nick Aberegg Badger -46.11 19:51.24 20:37.35
Michael Blaser Findlay -1:23.48 19:51.25 21:14.73
Landon Fritch Sher. Fairview +7.69 19:59.32 19:51.63
Drew Northcut Mil. Lake -2:45.83 19:51.70 22:37.53
Paul Krolak Perrysburg -2:14.79 19:51.72 22:06.51
Natalie Vidacs No. Royalton -2:09.34 19:51.72 22:01.06
Kristen Fett Defiance -4:08.45 19:52.12 24:00.57
Parker Keating Fre. St. Joseph C.C. -3:30.79 19:52.22 23:23.01
Damen Escobedo Gibsonburg -34.44 19:52.32 20:26.76
Alec Grieselding Toledo C.C. -27.79 19:52.60 20:20.39
Oscar O'Flaherty Carey -1:43.74 19:52.94 21:36.68
Lee Ruhenkamp Versailles -54.53 19:52.99 20:47.52
Annie Davis Akron SVSM +34.57 20:27.73 19:53.16
Mary Wenzell Greenon +43.19 20:36.42 19:53.23
Courtney Tyler Kirtland +1:30.39 21:23.73 19:53.34
Michael Richard Lebanon -2:02.61 19:53.95 21:56.56
Daniel Touzinsky Wester. North -1:11.49 19:54.12 21:05.61
Will Hollingsworth Kings +28.10 20:22.32 19:54.22
Stephen McKinney Ontario -9.95 19:54.96 20:04.91
Olivia DiBiasio Berea-Midpark -29.52 19:55.25 20:24.77
Kristen Haslett Berea-Midpark -48.26 19:55.31 20:43.57
Drew Nocton Lebanon +54.71 20:50.25 19:55.54
Emilio Ramirez St. Johns Jesuit -2:16.36 19:56.24 22:12.60
Kayla Andersen Stow-Munroe Falls -1:05.72 19:56.28 21:02.00
Lindsey Myers Tol. N. Dame Acad. -1:38.69 19:56.65 21:35.34
Randy Ulinski Oregon Clay -31.71 19:56.82 20:28.53
Lindsay Kaatz Sand. SMCC +8.20 20:05.06 19:56.86
Abby Reymann Perrysburg -7.65 19:57.16 20:04.81
Chris Gallagher Sum. Co. Day -1:39.49 19:57.37 21:36.86
Will Hobson Magnificat -10.18 19:57.46 20:07.64
Dylan Furtell St. Johns Jesuit -57.92 19:57.58 20:55.50
Jenny Timoteo Brunswick +9.22 20:06.92 19:57.70
Kendra Kezur Syl. Southview -11.25 19:57.72 20:08.97
Jessica Glanz Anthony Wayne -46.14 19:57.85 20:43.99
Maddie Furrer Avon Lake +4.31 20:02.25 19:57.94
Ryan Earle Wadsworth -43.23 19:58.10 20:41.33
Nicholas Coffman Mil. Edison +58.26 20:56.37 19:58.11
Branden Burke Danbury +2:30.60 22:28.96 19:58.36
Nicole Klimkowski Milton-Union -0.80 19:58.44 19:59.24
Patrick Tarasiewicz Bellefontaine -1:24.06 19:58.45 21:22.51
Natalie Grillot Versailles -35.56 19:58.48 20:34.04
Matthew Beltz Avon -1:23.04 19:58.65 21:21.69
Jacob Sigman St. Johns Jesuit -1:05.95 19:58.76 21:04.71
Julie Richards Circleville -27.91 19:59.15 20:27.06
Nelson Laracuente Berea-Midpark -55.57 19:59.25 20:54.82
Josh Vanderzyden Ashland -17.75 19:59.56 20:17.31
Tyler Farr Bowling Green -1:00.66 19:59.60 21:00.26
Justin Leiter Hopewell-Loudon +29.35 20:29.14 19:59.79
Jessica Kern Delta +18.04 20:17.84 19:59.80
Justin Weyer Margaretta -42.56 20:00.04 20:42.60
Magen Murphy Medina +39.65 20:39.92 20:00.27
Lauren Seibert Mother of Mercy -23.36 20:00.60 20:23.96
Melina Artmayer Mother of Mercy -19.84 20:00.77 20:20.61
Alyssa Brunswick Coldwater +1:56.59 21:57.43 20:00.84
Nicolas Re No. Olmsted -1:23.76 20:01.08 21:24.84
Colin Taylor Miamisburg -17.06 20:01.21 20:18.27
Erica Bettac Shelby -43.95 20:02.28 20:46.23
Evan King Fostoria -1:50.80 20:02.77 21:53.57
Kyle Carter Avon -1:45.77 20:02.80 21:48.57
Derek Silkwood Mil. Edison -1:23.27 20:03.54 21:26.81
Michael Foley Avon Lake -1:08.07 20:03.98 21:12.05
Justin Palma Sandusky +19.36 20:23.48 20:04.12
Pauline Hage Strongsville -48.60 20:04.27 20:52.87
Nick Bischoff Monroeville -45.48 20:04.53 20:50.01
Gretchen Sauder Ash. Crestview -15.88 20:05.16 20:21.04
Katie Bono Van Wert -43.74 20:05.41 20:49.15
Brandon Gurnack Mil. Edison +28.94 20:34.47 20:05.53
Alex Foley Magnificat -3.07 20:05.79 20:08.86
Stephen Fleischer Westlake -1:27.70 20:07.25 21:34.95
Halley Green Medina -1:22.81 20:07.35 21:30.16
Seth Schmidt Kenston -2:32.11 20:07.86 22:39.97
Tyler Sparks Fairless +1:22.08 21:30.37 20:08.29
Creighton Parent Lebanon +4.12 20:12.76 20:08.64
Josh Bryan Gibsonburg -44.61 20:08.67 20:53.28
Scott Snodgrass Fre. St. Joseph C.C. -1:53.22 20:08.78 22:02.00
James Anderson Steele -38.94 20:09.15 20:48.09
Kacy Dunn Kings -44.12 20:09.96 20:54.08
Adam Smith Magnificat +17.33 20:27.48 20:10.15
Vince Bartolotta Avon Lake -1:26.47 20:10.97 21:37.44
Kristen Ruckstahl Mentor -16.48 20:11.04 20:27.52
Matt Boberek No. Royalton -1:56.17 20:11.37 22:07.54
Hayden Eighinger St. Peters -1:12.15 20:11.81 21:23.96
Chad Clark Westlake -23.68 20:11.84 20:35.52
Liz Kobe Westlake -1:08.69 20:11.84 21:20.53
Macy Monnin Russia -6.58 20:12.46 20:19.04
Sebastian Miler Defiance +15.21 20:28.06 20:12.85
Kris Piotrowski Bellmont High School -2:32.44 20:12.92 22:45.36
Katsuya Handa Lexington -40.58 20:13.04 20:53.62
Michaela Litton Milton-Union +10.50 20:23.54 20:13.04
Alec Lymanstall Tinora -1:37.43 20:13.08 21:50.51
Nick Brown Rossford -2:11.92 20:13.47 22:25.39
Taylor Eliot West Holmes +26.40 20:39.96 20:13.56
Alex Vonderau Black River -1:18.63 20:13.69 21:32.32
Eric Johnson Perrysburg -2:16.00 20:14.61 22:30.61
Kylie Drees Ft. Loramie +36.80 20:51.45 20:14.65
Hannah Butler Minster +26.09 20:40.84 20:14.75
Ryan Lattin Badger +2:59.02 23:13.79 20:14.77
Brandon Schwilk Minster -1:32.64 20:14.86 21:47.50
Halle Frey Liberty-Benton -16.57 20:14.88 20:31.45
Craig Hollis Milton-Union -2.47 20:14.90 20:17.37
Paige Wiechman Fremont Ross -1:20.23 20:15.41 21:35.64
Amanda Sollenberger Akron SVSM -1:16.89 20:15.42 21:32.31
Jared Prescott Kenston -57.10 20:15.82 21:12.92
Frank Begue Hopewell-Loudon -49.69 20:16.11 21:05.80
Ben Lynn Stritch Cath. -12.66 20:16.32 20:28.98
John McKinney St. Paul -1:22.24 20:16.36 21:38.60
Drew Schroeder Columbus Grove -32.08 20:16.60 20:48.68
Kerry Calkins Lebanon -1:57.30 20:16.74 22:14.04
Leah Lehotsky No. Royalton -17.05 20:17.04 20:34.09
Stephen Brown Wadsworth -47.93 20:17.66 21:05.59
Nick Jacobs Ashland -44.71 20:18.04 21:02.75
Travis Quigley Perrysburg +1:19.99 21:38.54 20:18.55
Ericka Hosang Bellevue -2:01.35 20:18.73 22:20.08
Leah Wagoner Otsego -36.35 20:18.77 20:55.12
Amber Willeman Napoleon -1:01.89 20:19.08 21:20.97
Dean Nellis Coldwater -2:44.66 20:19.17 23:03.83
Samantha Hoelscher Minster +2:25.00 22:44.37 20:19.37
Alyssa Binczyk Shaker Hts. +3.36 20:22.78 20:19.42
Robie Mitchell Ottawa Hills -57.81 20:19.82 21:17.63
Charlie Begy Avon Lake -6.93 20:19.84 20:26.77
Bryce Walker Maumee -1:42.88 20:19.96 22:02.84
Carey Fulk Ash. Crestview -23.20 20:20.16 20:43.36
Jordan Phillips Coll Western -4:35.10 20:20.53 24:55.63
Spencer Morelock Gibsonburg -34.77 20:20.73 20:55.50
Jason Bailey Port Clinton -52.21 20:20.96 21:13.17
Michael Post Huron -1:24.98 20:21.19 21:46.17
Nathan Gembreska Whitmer -1:50.23 20:21.38 22:11.61
Cory Hasel Mil. Edison +0.58 20:21.96 20:21.38
Ian Warnement Calvert -11.12 20:21.42 20:32.54
Carley Berman Mentor -1:31.99 20:22.61 21:54.60
Josh Husar Clearview -1:07.74 20:23.07 21:30.81
Amanda Dearmond Maumee -1:00.07 20:23.58 21:23.65
Sophia Richard Minster +35.32 20:59.16 20:23.84
Megan Boggs Shelby +1.01 20:25.64 20:24.63
Kevin Dempsey Westlake -15.98 20:24.89 20:40.87
Brittany Gates Keystone +2:00.95 22:27.13 20:26.18
Courtney Kishbaugh Magnificat -28.16 20:26.21 20:54.37
Sean Oak Lexington +34.87 21:01.16 20:26.29
Kenny Williams Swanton +19.87 20:46.22 20:26.35
Sam Coleman Shelby -24.08 20:27.05 20:51.13
Genna Mori No. Royalton -1:32.10 20:27.19 21:59.29
Danielle Wilson Fairless -1:26.04 20:27.28 21:53.32
Larissa Kohn Coldwater +12.07 20:39.46 20:27.39
Leah Brunswick Coldwater +20.16 20:48.37 20:28.21
Cameron Thompson Ashland +0.98 20:29.28 20:28.30
Megan O'keefe Magnificat -16.53 20:28.88 20:45.41
Andrew Barker Anthony Wayne -4.14 20:29.08 20:33.22
Dan Coski Strongsville +36.78 21:06.25 20:29.47
Chris Lesak Kirtland +23.17 20:52.81 20:29.64
Kirsten Fruchey Delta +1:29.04 21:58.75 20:29.71
Samuel Adams Anthony Wayne +1:36.45 22:06.18 20:29.73
Tyler Graffice Mansfield Senior -1:47.08 20:30.50 22:17.58
Katie Connolly Strongsville -7.07 20:30.56 20:37.63
Brady Young Brunswick -2:09.49 20:30.60 22:40.09
J Brocklehurst Medina -1:23.10 20:30.63 21:53.73
Mackenzie Glasgow Fairless -43.02 20:30.83 21:13.85
Julia Daniel Mohawk -1:41.68 20:31.27 22:12.95
Kelsey Brebberman Maumee -4:34.99 20:31.40 25:06.39
Cal VonStein Shelby +1:07.03 21:38.80 20:31.77
Greg Krasnoschlik Independence -1:19.00 20:32.26 21:51.26
Shelby Wilson McComb +0.96 20:33.26 20:32.30
Melanie Trefny No. Olmsted -59.88 20:32.41 21:32.29
Jimmy Zielinski Eastwood -50.61 20:32.70 21:23.31
Aj Oeder Margaretta +1:00.75 21:33.48 20:32.73
Clay Burkholder Gorham Fayette -1:08.76 20:33.18 21:41.94
Caitlin Clapacs Hathaway Brown +8.04 20:41.33 20:33.29
Krista Sandercock Western Reserve Academy-Hudson -1:02.33 20:33.48 21:35.81
Neil Bishop Lebanon +39.52 21:13.24 20:33.72
Lauren Coombs Tol. N. Dame Acad. +1:02.94 21:36.79 20:33.85
Nick Blackburn Findlay +34.44 21:08.42 20:33.98
Tyler Smith Avon Lake -3.37 20:34.15 20:37.52
Mallory Spieth Liberty Center -1:20.90 20:34.45 21:55.35
Mia Yeager CVCA -2:18.31 20:34.71 22:53.02
Stone Saling Caldwell +7.18 20:41.90 20:34.72
Paul Sulser Colonel Crawford -1:05.53 20:35.13 21:40.66
Josh Stephens Columbus Grove -1:16.01 20:35.13 21:51.14
Dustin Kleis Kenston -1:20.28 20:35.70 21:55.98
Shannon Sullivan Magnificat -50.74 20:35.85 21:26.59
Erica Miller Greenon -1:04.62 20:36.53 21:41.15
Andrew Sucharski Wester. North +19.55 20:56.16 20:36.61
Brian Yost Milton-Union +33.24 21:10.00 20:36.76
Robin Foster Sylvania Northview -2:59.58 20:36.89 23:36.47
Whitney Jackson Ash. Crestview +28.16 21:05.06 20:36.90
Lauren Starks Mentor -33.35 20:37.00 21:10.35
Braeden O'connell Bellaire St. John -1:02.53 20:37.18 21:39.71
Natalie Camardo Strongsville -1:08.76 20:37.28 21:46.04
Allie Dombrowsky Oak Harbor +1:03.39 21:40.91 20:37.52
Charles Sarra Stritch Cath. -1:10.72 20:37.79 21:48.51
Nicole Frantz Versailles -59.22 20:37.83 21:37.05
Megan Olzak Perrysburg -1.16 20:37.86 20:39.02
Allie Dresser Oak Harbor +5.06 20:43.16 20:38.10
Kali Fittro Columbian -26.91 20:38.21 21:05.12
Zach Fradette Wester. North -45.57 20:38.37 21:23.94
Sophia Gentile Brunswick +1:52.08 22:30.56 20:38.48
Jacquie Moorman Versailles +21.80 21:00.37 20:38.57
Trevor Risner Hopewell-Loudon -2:51.75 20:38.72 23:30.47
Megan Ball Greenon +1.27 20:40.05 20:38.78
Nick Kemper Minster -2:29.01 20:38.90 23:07.91
Ian Duffy St. Peters -1:04.47 20:39.61 21:44.08
Jade Kinney Lebanon +50.64 21:30.32 20:39.68
Zack Middleton Kings -1:12.95 20:39.83 21:52.78
Zach Henchar Avon Lake +1:38.32 22:18.17 20:39.85
Zack Miller Bellevue -1:15.23 20:40.09 21:55.32
Noelle Jurcak Berkshire +1:42.27 22:22.66 20:40.39
Ed Batt Berea-Midpark -1:14.79 20:40.82 21:55.61
Colleen Valko Bellevue -1:23.30 20:40.96 22:04.26
Seth Burt Wester. North -1:39.91 20:41.20 22:21.11
Blake Olson Bellefontaine -1:24.62 20:41.42 22:06.04
Tommy Magyarosi Lebanon -6.43 20:41.70 20:48.13
Sam Oleweiler Ash. Crestview -11.30 20:42.01 20:53.31
Jordyn Landrum Toledo C.C. -31.53 20:42.90 21:14.43
Sara Patterson Berkshire -40.29 20:43.67 21:23.96
Dallas Bolton Miamisburg -6.61 20:43.85 20:50.46
Liz Gaut Fairless -3.23 20:44.30 20:47.53
Roberto Rodriguez No. Royalton -1:43.14 20:44.32 22:27.46
Audra Schroeder Liberty-Benton -26.97 20:44.40 21:11.37
Marissa Mchugh Medina +15.06 20:59.56 20:44.50
Michael Coffman Mil. Edison +44.87 21:29.92 20:45.05
Keith Burns Wapakoneta -2:05.14 20:45.16 22:50.30
Morgan Cheung Maumee -7.23 20:45.26 20:52.49
Katie Ollier Carroll -1:01.28 20:45.34 21:46.62
Becky Szabo No. Olmsted +1:11.46 21:57.06 20:45.60
Madi Renollet Eastwood -33.96 20:45.60 21:19.56
Megan Burnett Berkshire -1:22.37 20:46.13 22:08.50
Alex Ramirez Defiance -29.44 20:46.23 21:15.67
Sarah Torok Strongsville -1:26.91 20:46.72 22:13.63
Aaron Brown Woodmore +41.86 21:28.62 20:46.76
Doug Muntz Genoa Area -2:42.38 20:46.93 23:29.31
Stephen Owczarzak Oregon Clay +5.03 20:52.19 20:47.16
Orey Schumacher Fairless +1:03.11 21:51.06 20:47.95
Seth Caldwell Clearview -1:37.74 20:48.29 22:26.03
Ben Nortz Bay -14.68 20:48.51 21:03.19
Brittney Holmes Defiance -1:25.32 20:48.72 22:14.04
Jakob Bohland Oregon Clay -14.89 20:48.96 21:03.85
Sarah Bonar Badger +30.40 21:19.62 20:49.22
Katelynn Young Old Fort +25.70 21:15.21 20:49.51
Erik Hansberger Coll Western +2.78 20:52.32 20:49.54
Brian Mckenzie Bowling Green +26.26 21:16.25 20:49.99
Sara Plott Findlay -8.38 20:50.13 20:58.51
Anne Redd Temperance-Bedford -1:57.58 20:50.15 22:47.73
Eri Bodenbender Liberty Center -1:19.72 20:50.22 22:09.94
Jessica Ball No. Royalton +3.73 20:55.03 20:51.30
Amy Veverka No. Olmsted -1:30.97 20:51.67 22:22.64
Tyler Aldrich Lakota +1:24.60 22:16.30 20:51.70
Mackenzie Harris Hawken +42.93 21:34.87 20:51.94
Mary Stankiewicz Brunswick -6.37 20:52.07 20:58.44
Sadie Daeger Defiance -2:55.72 20:52.11 23:47.83
Nicki Woodcraft Beaumont -1:47.11 20:52.56 22:39.67
Ryan Schindler Mil. Edison +11.02 21:03.64 20:52.62
Seth Wenrich Wester. North -2:10.99 20:52.70 23:03.69
Natalie Fausey Minster -1.80 20:52.72 20:54.52
Katelyn Ryan Marlington +45.01 21:38.24 20:53.23
Jesse Slingluff Beaumont -15.14 20:53.59 21:08.73
Jacob Hossler Bettsville -12.08 20:53.84 21:05.92
Jack Pearcy Copley -4.13 20:53.90 20:58.03
Tess Barsody Stow-Munroe Falls -4.44 20:53.92 20:58.36
Collin Thompson Con. Crestview +32.35 21:26.30 20:53.95
Amanda Sherman Minster -12.14 20:54.31 21:06.45
Elizabeth Volz Lexington -1:22.64